Time,TemperatureF,DewpointF,PressureIn,WindDirection,WindDirectionDegrees,WindSpeedMPH,WindSpeedGustMPH,Humidity,HourlyPrecipIn,Conditions,Clouds,dailyrainin,SoftwareType,DateUTC
2013-01-13 00:00:00,51.3,42.2,30.10,West,272,0.0,4.0,71,0.00,RA,,0.00,WeatherDisplay:10.37,2013-01-12 23:00:00,
2013-01-13 07:10:00,53.0,44.2,30.02,South,180,7.0,16.0,72,0.00,CLR,,0.00,WeatherDisplay:10.37,2013-01-13 06:10:00,
2013-01-13 07:20:00,53.0,43.1,30.02,South,189,3.0,14.0,69,0.00,CLR,,0.00,WeatherDisplay:10.37,2013-01-13 06:20:00,
2013-01-13 07:30:00,52.8,42.9,30.02,South,175,5.0,17.0,69,0.00,CLR,,0.00,WeatherDisplay:10.37,2013-01-13 06:30:00,
2013-01-13 07:40:00,52.0,42.9,30.02,SSE,157,9.0,17.0,71,0.00,CLR,,0.00,WeatherDisplay:10.37,2013-01-13 06:40:00,
2013-01-13 07:50:00,51.9,42.4,30.02,South,175,7.0,14.0,70,0.00,CLR,,0.00,WeatherDisplay:10.37,2013-01-13 06:50:00,
2013-01-13 08:00:00,51.9,42.8,30.03,South,180,5.0,13.0,71,0.00,CLR,,0.00,WeatherDisplay:10.37,2013-01-13 07:00:00,
2013-01-13 08:10:00,50.3,43.0,30.03,SSE,168,6.0,13.0,76,0.02,RA,,0.02,WeatherDisplay:10.37,2013-01-13 07:10:00,
2013-01-13 08:20:00,49.7,45.1,30.03,South,176,6.0,10.0,84,0.01,RA,,0.03,WeatherDisplay:10.37,2013-01-13 07:20:00,
2013-01-13 08:30:00,49.6,45.6,30.03,SSE,153,5.0,9.0,86,0.00,RA,,0.03,WeatherDisplay:10.37,2013-01-13 07:30:00,
2013-01-13 08:40:00,49.8,46.1,30.03,SSE,153,5.0,7.0,87,0.00,RA,,0.03,WeatherDisplay:10.37,2013-01-13 07:40:00,
2013-01-13 08:50:00,50.4,46.0,30.03,SSW,192,2.0,5.0,85,0.00,CLR,,0.03,WeatherDisplay:10.37,2013-01-13 07:50:00,
2013-01-13 09:00:00,50.9,46.6,30.03,South,177,0.0,4.0,85,0.00,CLR,,0.03,WeatherDisplay:10.37,2013-01-13 08:00:00,
2013-01-13 09:10:00,51.3,46.9,30.03,SSE,167,2.0,4.0,85,0.00,CLR,,0.03,WeatherDisplay:10.37,2013-01-13 08:10:00,
2013-01-13 09:20:00,51.4,46.4,30.03,South,170,3.0,8.0,83,0.00,CLR,,0.03,WeatherDisplay:10.37,2013-01-13 08:20:00,
2013-01-13 09:30:00,51.6,46.6,30.03,South,189,6.0,12.0,83,0.00,CLR,,0.03,WeatherDisplay:10.37,2013-01-13 08:30:00,
2013-01-13 09:40:00,52.0,47.3,30.03,SSE,153,2.0,12.0,84,0.00,CLR,,0.03,WeatherDisplay:10.37,2013-01-13 08:40:00,
2013-01-13 09:50:00,52.4,47.1,30.02,South,188,3.0,10.0,82,0.00,CLR,,0.03,WeatherDisplay:10.37,2013-01-13 08:50:00,
2013-01-13 10:00:00,53.0,48.0,30.03,SW,224,1.0,6.0,83,0.00,CLR,,0.03,WeatherDisplay:10.37,2013-01-13 09:00:00,
2013-01-13 10:10:00,54.4,49.0,30.03,South,188,7.0,17.0,82,0.00,CLR,,0.03,WeatherDisplay:10.37,2013-01-13 09:10:00,
2013-01-13 10:20:00,55.4,49.4,30.02,South,190,6.0,15.0,80,0.00,CLR,,0.03,WeatherDisplay:10.37,2013-01-13 09:20:00,
2013-01-13 10:30:00,55.6,48.8,30.03,South,185,9.0,23.0,78,0.00,CLR,,0.03,WeatherDisplay:10.37,2013-01-13 09:30:00,
2013-01-13 10:40:00,55.1,48.4,30.02,South,169,8.0,17.0,78,0.00,CLR,,0.03,WeatherDisplay:10.37,2013-01-13 09:40:00,
2013-01-13 10:50:00,54.9,48.5,30.02,South,177,3.0,16.0,79,0.00,CLR,,0.03,WeatherDisplay:10.37,2013-01-13 09:50:00,
2013-01-13 11:00:00,54.7,48.0,30.01,SSW,205,5.0,16.0,78,0.00,CLR,,0.03,WeatherDisplay:10.37,2013-01-13 10:00:00,
2013-01-13 11:10:00,54.9,48.2,30.01,SSE,156,6.0,13.0,78,0.00,CLR,,0.03,WeatherDisplay:10.37,2013-01-13 10:10:00,
2013-01-13 11:20:00,54.9,47.8,30.00,South,174,8.0,21.0,77,0.00,CLR,,0.03,WeatherDisplay:10.37,2013-01-13 10:20:00,
2013-01-13 11:30:00,54.8,48.4,30.00,South,188,13.0,20.0,79,0.01,RA,,0.04,WeatherDisplay:10.37,2013-01-13 10:30:00,
2013-01-13 11:40:00,53.5,47.8,30.00,South,174,8.0,20.0,81,0.00,RA,,0.04,WeatherDisplay:10.37,2013-01-13 10:40:00,
2013-01-13 11:50:00,53.5,47.4,29.99,South,191,6.0,15.0,80,0.00,RA,,0.04,WeatherDisplay:10.37,2013-01-13 10:50:00,
2013-01-13 12:00:00,53.7,47.7,29.99,SSW,193,3.0,15.0,80,0.00,,,0.04,WeatherDisplay:10.37,2013-01-13 11:00:00,
2013-01-13 12:10:00,53.7,47.0,29.99,South,184,5.0,14.0,78,0.00,CLR,,0.04,WeatherDisplay:10.37,2013-01-13 11:10:00,
2013-01-13 12:20:00,53.5,46.5,29.98,South,170,8.0,20.0,77,0.00,CLR,,0.04,WeatherDisplay:10.37,2013-01-13 11:20:00,
2013-01-13 12:30:00,52.6,47.9,29.98,South,174,9.0,18.0,84,0.00,CLR,,0.04,WeatherDisplay:10.37,2013-01-13 11:30:00,
2013-01-13 12:40:00,51.5,48.0,29.98,SSE,150,8.0,23.0,88,0.02,RA,,0.06,WeatherDisplay:10.37,2013-01-13 11:40:00,
2013-01-13 12:50:00,51.0,48.2,29.97,South,174,6.0,15.0,90,0.01,RA,,0.06,WeatherDisplay:10.37,2013-01-13 11:50:00,
2013-01-13 13:00:00,51.1,48.6,29.97,South,172,13.0,18.0,91,0.01,RA,,0.07,WeatherDisplay:10.37,2013-01-13 12:00:00,
2013-01-13 13:10:00,51.2,49.0,29.97,South,173,9.0,20.0,92,0.01,RA,,0.08,WeatherDisplay:10.37,2013-01-13 12:10:00,
2013-01-13 13:20:00,51.2,49.0,29.96,SSE,158,2.0,13.0,92,0.03,RA,,0.11,WeatherDisplay:10.37,2013-01-13 12:20:00,
2013-01-13 13:30:00,51.0,49.1,29.96,SSE,153,6.0,14.0,93,0.02,RA,,0.13,WeatherDisplay:10.37,2013-01-13 12:30:00,
2013-01-13 13:40:00,50.9,49.0,29.97,SSE,156,6.0,14.0,93,0.04,RA,,0.17,WeatherDisplay:10.37,2013-01-13 12:40:00,
2013-01-13 13:50:00,50.6,48.9,29.97,SSW,192,0.0,12.0,94,0.04,RA,,0.20,WeatherDisplay:10.37,2013-01-13 12:50:00,
2013-01-13 14:00:00,50.6,48.9,29.96,West,278,2.0,12.0,94,0.02,RA,,0.22,WeatherDisplay:10.37,2013-01-13 13:00:00,
2013-01-13 14:10:00,50.5,48.8,29.96,SE,142,3.0,5.0,94,0.03,RA,,0.25,WeatherDisplay:10.37,2013-01-13 13:10:00,
2013-01-13 14:20:00,50.2,48.6,29.96,SSE,148,3.0,12.0,94,0.03,RA,,0.28,WeatherDisplay:10.37,2013-01-13 13:20:00,
2013-01-13 14:30:00,50.2,48.6,29.95,SSE,162,10.0,18.0,94,0.02,RA,,0.31,WeatherDisplay:10.37,2013-01-13 13:30:00,
2013-01-13 14:40:00,50.4,48.7,29.95,South,176,6.0,13.0,94,0.00,RA,,0.31,WeatherDisplay:10.37,2013-01-13 13:40:00,
2013-01-13 14:50:00,50.6,48.9,29.95,SSE,162,7.0,13.0,94,0.00,RA,,0.31,WeatherDisplay:10.37,2013-01-13 13:50:00,
2013-01-13 15:00:00,50.8,49.1,29.95,South,170,5.0,15.0,94,0.00,CLR,,0.31,WeatherDisplay:10.37,2013-01-13 14:00:00,
2013-01-13 15:10:00,50.9,49.2,29.95,South,177,6.0,12.0,94,0.00,CLR,,0.31,WeatherDisplay:10.37,2013-01-13 14:10:00,
2013-01-13 15:20:00,51.0,49.1,29.95,South,180,1.0,12.0,93,0.00,CLR,,0.31,WeatherDisplay:10.37,2013-01-13 14:20:00,
2013-01-13 15:30:00,51.2,49.2,29.95,South,175,6.0,16.0,93,0.00,CLR,,0.31,WeatherDisplay:10.37,2013-01-13 14:30:00,
2013-01-13 15:40:00,51.8,49.5,29.95,SSE,166,5.0,16.0,92,0.00,CLR,,0.31,WeatherDisplay:10.37,2013-01-13 14:40:00,
2013-01-13 15:50:00,51.9,49.4,29.95,SSW,202,7.0,12.0,91,0.00,CLR,,0.31,WeatherDisplay:10.37,2013-01-13 14:50:00,
2013-01-13 16:00:00,52.2,49.7,29.94,South,189,3.0,9.0,91,0.00,CLR,,0.31,WeatherDisplay:10.37,2013-01-13 15:00:00,
2013-01-13 16:10:00,52.4,50.2,29.94,SSE,149,3.0,12.0,92,0.00,CLR,,0.31,WeatherDisplay:10.37,2013-01-13 15:10:00,
2013-01-13 16:20:00,53.3,51.0,29.94,SSW,196,5.0,13.0,92,0.00,CLR,,0.31,WeatherDisplay:10.37,2013-01-13 15:20:00,
2013-01-13 16:30:00,54.1,51.9,29.94,South,182,3.0,17.0,92,0.00,CLR,,0.31,WeatherDisplay:10.37,2013-01-13 15:30:00,
2013-01-13 16:40:00,54.7,51.8,29.94,SSW,208,8.0,18.0,90,0.00,CLR,,0.31,WeatherDisplay:10.37,2013-01-13 15:40:00,
2013-01-13 16:50:00,54.8,51.6,29.94,South,185,8.0,16.0,89,0.00,CLR,,0.31,WeatherDisplay:10.37,2013-01-13 15:50:00,
2013-01-13 17:00:00,55.0,51.5,29.94,SSE,166,5.0,20.0,88,0.00,CLR,,0.31,WeatherDisplay:10.37,2013-01-13 16:00:00,
2013-01-13 17:10:00,55.1,51.9,29.94,South,191,9.0,21.0,89,0.00,CLR,,0.31,WeatherDisplay:10.37,2013-01-13 16:10:00,
2013-01-13 17:20:00,55.2,52.0,29.94,SW,219,6.0,17.0,89,0.00,CLR,,0.31,WeatherDisplay:10.37,2013-01-13 16:20:00,
2013-01-13 17:30:00,55.2,51.7,29.93,South,177,8.0,17.0,88,0.00,CLR,,0.31,WeatherDisplay:10.37,2013-01-13 16:30:00,
2013-01-13 17:40:00,55.1,51.6,29.94,SSW,195,9.0,20.0,88,0.00,CLR,,0.31,WeatherDisplay:10.37,2013-01-13 16:40:00,
2013-01-13 17:50:00,55.1,51.6,29.94,South,182,6.0,21.0,88,0.00,CLR,,0.31,WeatherDisplay:10.37,2013-01-13 16:50:00,
2013-01-13 18:00:00,55.3,52.4,29.93,South,183,13.0,21.0,90,0.00,CLR,,0.31,WeatherDisplay:10.37,2013-01-13 17:00:00,
2013-01-13 18:10:00,55.4,52.2,29.93,SSE,167,12.0,24.0,89,0.00,CLR,,0.31,WeatherDisplay:10.37,2013-01-13 17:10:00,
2013-01-13 18:20:00,55.3,52.1,29.93,South,178,9.0,23.0,89,0.00,CLR,,0.31,WeatherDisplay:10.37,2013-01-13 17:20:00,
2013-01-13 18:30:00,55.4,52.2,29.93,South,179,14.0,24.0,89,0.00,CLR,,0.31,WeatherDisplay:10.37,2013-01-13 17:30:00,
2013-01-13 18:40:00,55.3,51.8,29.93,South,186,6.0,20.0,88,0.00,CLR,,0.31,WeatherDisplay:10.37,2013-01-13 17:40:00,
2013-01-13 18:50:00,55.4,51.9,29.93,South,186,14.0,29.0,88,0.00,CLR,,0.31,WeatherDisplay:10.37,2013-01-13 17:50:00,
2013-01-13 19:00:00,55.5,52.0,29.93,SSW,204,10.0,27.0,88,0.00,CLR,,0.31,WeatherDisplay:10.37,2013-01-13 18:00:00,
2013-01-13 19:10:00,55.4,51.9,29.93,South,175,9.0,23.0,88,0.00,CLR,,0.31,WeatherDisplay:10.37,2013-01-13 18:10:00,
2013-01-13 19:20:00,55.4,51.6,29.93,SSW,200,9.0,24.0,87,0.00,CLR,,0.31,WeatherDisplay:10.37,2013-01-13 18:20:00,
2013-01-13 19:30:00,55.5,51.7,29.92,South,187,12.0,21.0,87,0.00,CLR,,0.31,WeatherDisplay:10.37,2013-01-13 18:30:00,
2013-01-13 19:40:00,55.5,52.0,29.92,South,189,12.0,27.0,88,0.00,CLR,,0.31,WeatherDisplay:10.37,2013-01-13 18:40:00,
2013-01-13 19:50:00,55.5,52.0,29.92,South,190,17.0,25.0,88,0.00,CLR,,0.31,WeatherDisplay:10.37,2013-01-13 18:50:00,
2013-01-13 20:00:00,55.4,51.9,29.92,SSW,199,9.0,22.0,88,0.00,CLR,,0.31,WeatherDisplay:10.37,2013-01-13 19:00:00,
2013-01-13 20:10:00,55.4,51.9,29.92,South,171,6.0,16.0,88,0.00,CLR,,0.31,WeatherDisplay:10.37,2013-01-13 19:10:00,
2013-01-13 20:20:00,55.4,51.9,29.92,SSE,168,7.0,20.0,88,0.00,CLR,,0.31,WeatherDisplay:10.37,2013-01-13 19:20:00,
2013-01-13 20:30:00,55.3,50.5,29.92,South,170,12.0,25.0,84,0.00,CLR,,0.31,WeatherDisplay:10.37,2013-01-13 19:30:00,
2013-01-13 20:40:00,54.9,50.5,29.92,South,172,6.0,20.0,85,0.00,CLR,,0.31,WeatherDisplay:10.37,2013-01-13 19:40:00,
2013-01-13 20:50:00,55.0,51.5,29.92,SSE,154,9.0,14.0,88,0.00,CLR,,0.31,WeatherDisplay:10.37,2013-01-13 19:50:00,
2013-01-13 21:00:00,55.2,52.0,29.92,South,172,10.0,15.0,89,0.00,CLR,,0.31,WeatherDisplay:10.37,2013-01-13 20:00:00,
2013-01-13 21:10:00,55.2,52.0,29.92,South,179,9.0,20.0,89,0.00,CLR,,0.31,WeatherDisplay:10.37,2013-01-13 20:10:00,
2013-01-13 21:20:00,55.3,52.1,29.91,South,185,6.0,22.0,89,0.00,CLR,,0.31,WeatherDisplay:10.37,2013-01-13 20:20:00,
2013-01-13 21:30:00,54.5,49.1,29.92,South,188,12.0,26.0,82,0.00,CLR,,0.31,WeatherDisplay:10.37,2013-01-13 20:30:00,
2013-01-13 21:40:00,53.9,46.5,29.92,South,171,9.0,24.0,76,0.00,CLR,,0.31,WeatherDisplay:10.37,2013-01-13 20:40:00,
2013-01-13 21:50:00,53.9,46.5,29.92,South,189,9.0,24.0,76,0.00,CLR,,0.31,WeatherDisplay:10.37,2013-01-13 20:50:00,
2013-01-13 22:00:00,53.8,47.1,29.91,SSE,168,13.0,25.0,78,0.00,CLR,,0.31,WeatherDisplay:10.37,2013-01-13 21:00:00,
2013-01-13 22:10:00,53.9,48.2,29.93,South,175,13.0,23.0,81,0.04,RA,,0.35,WeatherDisplay:10.37,2013-01-13 21:10:00,
2013-01-13 22:20:00,52.8,48.1,29.92,SSE,168,7.0,22.0,84,0.05,RA,,0.39,WeatherDisplay:10.37,2013-01-13 21:20:00,
2013-01-13 22:30:00,53.6,49.8,29.92,South,169,9.0,17.0,87,0.00,RA,,0.39,WeatherDisplay:10.37,2013-01-13 21:30:00,
2013-01-13 22:40:00,54.5,50.7,29.92,South,169,6.0,22.0,87,0.00,RA,,0.39,WeatherDisplay:10.37,2013-01-13 21:40:00,
2013-01-13 22:50:00,54.7,50.9,29.92,SSE,162,13.0,25.0,87,0.00,CLR,,0.39,WeatherDisplay:10.37,2013-01-13 21:50:00,
2013-01-13 23:00:00,55.0,51.2,29.92,SSE,160,7.0,15.0,87,0.00,CLR,,0.39,WeatherDisplay:10.37,2013-01-13 22:00:00,
2013-01-13 23:10:00,55.0,51.2,29.91,South,184,10.0,24.0,87,0.00,CLR,,0.39,WeatherDisplay:10.37,2013-01-13 22:10:00,
2013-01-13 23:20:00,55.2,51.4,29.91,SSE,165,8.0,23.0,87,0.00,CLR,,0.39,WeatherDisplay:10.37,2013-01-13 22:20:00,
2013-01-13 23:30:00,55.2,51.4,29.91,South,169,7.0,17.0,87,0.00,CLR,,0.39,WeatherDisplay:10.37,2013-01-13 22:30:00,
2013-01-13 23:40:00,55.3,51.5,29.91,SSW,198,13.0,24.0,87,0.00,CLR,,0.39,WeatherDisplay:10.37,2013-01-13 22:40:00,
2013-01-13 23:50:00,55.2,50.8,29.91,SSE,167,10.0,23.0,85,0.00,CLR,,0.39,WeatherDisplay:10.37,2013-01-13 22:50:00,
2013-01-13 23:59:00,55.2,51.1,29.91,South,173,8.0,22.0,86,0.00,RA,,0.00,WeatherDisplay:10.37,2013-01-13 22:59:00,